#datetime,building,power
2022-11-24T00:00:00,prt,21.07
2022-11-24T00:01:00,prt,19.30
2022-11-24T00:02:00,prt,20.48
2022-11-24T00:03:00,prt,21.01
2022-11-24T00:04:00,prt,22.17
2022-11-24T00:05:00,prt,23.48
2022-11-24T00:06:00,prt,25.88
2022-11-24T00:07:00,prt,27.53
2022-11-24T00:08:00,prt,24.63
2022-11-24T00:09:00,prt,22.57
2022-11-24T00:10:00,prt,21.33
2022-11-24T00:11:00,prt,23.07
2022-11-24T00:12:00,prt,24.16
2022-11-24T00:13:00,prt,21.52
2022-11-24T00:14:00,prt,23.84
2022-11-24T00:15:00,prt,23.62
2022-11-24T00:16:00,prt,24.06
2022-11-24T00:17:00,prt,25.58
2022-11-24T00:18:00,prt,25.41
2022-11-24T00:19:00,prt,22.47
2022-11-24T00:20:00,prt,22.79
2022-11-24T00:21:00,prt,24.49
2022-11-24T00:22:00,prt,23.02
2022-11-24T00:23:00,prt,22.41
2022-11-24T00:24:00,prt,24.85
2022-11-24T00:25:00,prt,24.19
2022-11-24T00:26:00,prt,22.56
2022-11-24T00:27:00,prt,21.88
2022-11-24T00:28:00,prt,21.13
2022-11-24T00:29:00,prt,21.56
2022-11-24T00:30:00,prt,21.39
2022-11-24T00:31:00,prt,20.56
2022-11-24T00:32:00,prt,20.05
2022-11-24T00:33:00,prt,21.67
2022-11-24T00:34:00,prt,21.86
2022-11-24T00:35:00,prt,21.60
2022-11-24T00:36:00,prt,21.13
2022-11-24T00:37:00,prt,20.70
2022-11-24T00:38:00,prt,22.23
2022-11-24T00:39:00,prt,20.70
2022-11-24T00:40:00,prt,21.34
2022-11-24T00:41:00,prt,20.01
2022-11-24T00:42:00,prt,20.57
2022-11-24T00:43:00,prt,27.24
2022-11-24T00:44:00,prt,28.77
2022-11-24T00:45:00,prt,25.15
2022-11-24T00:46:00,prt,24.38
2022-11-24T00:47:00,prt,23.72
2022-11-24T00:48:00,prt,23.06
2022-11-24T00:49:00,prt,23.52
2022-11-24T00:50:00,prt,24.38
2022-11-24T00:51:00,prt,25.02
2022-11-24T00:52:00,prt,23.04
2022-11-24T00:53:00,prt,22.13
2022-11-24T00:54:00,prt,19.76
2022-11-24T00:55:00,prt,21.27
2022-11-24T00:56:00,prt,21.59
2022-11-24T00:57:00,prt,22.25
2022-11-24T00:58:00,prt,22.93
2022-11-24T00:59:00,prt,22.03
2022-11-24T01:00:00,prt,20.02
2022-11-24T01:01:00,prt,24.28
2022-11-24T01:02:00,prt,24.06
2022-11-24T01:03:00,prt,25.31
2022-11-24T01:04:00,prt,21.00
2022-11-24T01:05:00,prt,20.91
2022-11-24T01:06:00,prt,20.81
2022-11-24T01:07:00,prt,21.24
2022-11-24T01:08:00,prt,21.62
2022-11-24T01:09:00,prt,25.03
2022-11-24T01:10:00,prt,24.92
2022-11-24T01:11:00,prt,25.39
2022-11-24T01:12:00,prt,24.69
2022-11-24T01:13:00,prt,25.88
2022-11-24T01:14:00,prt,22.70
2022-11-24T01:15:00,prt,22.61
2022-11-24T01:16:00,prt,22.15
2022-11-24T01:17:00,prt,20.10
2022-11-24T01:18:00,prt,20.93
2022-11-24T01:19:00,prt,24.73
2022-11-24T01:20:00,prt,26.32
2022-11-24T01:21:00,prt,27.59
2022-11-24T01:22:00,prt,24.95
2022-11-24T01:23:00,prt,24.50
2022-11-24T01:24:00,prt,24.63
2022-11-24T01:25:00,prt,23.80
2022-11-24T01:26:00,prt,23.97
2022-11-24T01:27:00,prt,21.59
2022-11-24T01:28:00,prt,24.08
2022-11-24T01:29:00,prt,23.44
2022-11-24T01:30:00,prt,20.07
2022-11-24T01:31:00,prt,19.77
2022-11-24T01:32:00,prt,20.76
2022-11-24T01:33:00,prt,23.50
2022-11-24T01:34:00,prt,22.13
2022-11-24T01:35:00,prt,24.30
2022-11-24T01:36:00,prt,30.73
2022-11-24T01:37:00,prt,29.86
2022-11-24T01:38:00,prt,28.93
2022-11-24T01:39:00,prt,25.02
2022-11-24T01:40:00,prt,22.06
2022-11-24T01:41:00,prt,20.94
2022-11-24T01:42:00,prt,21.02
2022-11-24T01:43:00,prt,22.97
2022-11-24T01:44:00,prt,23.54
2022-11-24T01:45:00,prt,24.82
2022-11-24T01:46:00,prt,23.94
2022-11-24T01:47:00,prt,23.57
2022-11-24T01:48:00,prt,22.73
2022-11-24T01:49:00,prt,23.23
2022-11-24T01:50:00,prt,22.50
2022-11-24T01:51:00,prt,21.26
2022-11-24T01:52:00,prt,21.45
2022-11-24T01:53:00,prt,22.56
2022-11-24T01:54:00,prt,21.79
2022-11-24T01:55:00,prt,20.64
2022-11-24T01:56:00,prt,26.28
2022-11-24T01:57:00,prt,27.58
2022-11-24T01:58:00,prt,24.84
2022-11-24T01:59:00,prt,22.56
2022-11-24T02:00:00,prt,23.91
2022-11-24T02:01:00,prt,27.68
2022-11-24T02:02:00,prt,24.05
2022-11-24T02:03:00,prt,25.54
2022-11-24T02:04:00,prt,28.85
2022-11-24T02:05:00,prt,21.46
2022-11-24T02:06:00,prt,21.58
2022-11-24T02:07:00,prt,20.92
2022-11-24T02:08:00,prt,18.58
2022-11-24T02:09:00,prt,19.71
2022-11-24T02:10:00,prt,20.38
2022-11-24T02:11:00,prt,22.33
2022-11-24T02:12:00,prt,22.14
2022-11-24T02:13:00,prt,23.99
2022-11-24T02:14:00,prt,27.96
2022-11-24T02:15:00,prt,24.70
2022-11-24T02:16:00,prt,23.81
2022-11-24T02:17:00,prt,21.08
2022-11-24T02:18:00,prt,20.28
2022-11-24T02:19:00,prt,19.83
2022-11-24T02:20:00,prt,20.08
2022-11-24T02:21:00,prt,21.51
2022-11-24T02:22:00,prt,25.33
2022-11-24T02:23:00,prt,21.99
2022-11-24T02:24:00,prt,24.36
2022-11-24T02:25:00,prt,26.26
2022-11-24T02:26:00,prt,26.94
2022-11-24T02:27:00,prt,26.51
2022-11-24T02:28:00,prt,25.77
2022-11-24T02:29:00,prt,23.65
2022-11-24T02:30:00,prt,25.14
2022-11-24T02:31:00,prt,24.83
2022-11-24T02:32:00,prt,26.08
2022-11-24T02:33:00,prt,24.82
2022-11-24T02:34:00,prt,26.25
2022-11-24T02:35:00,prt,22.42
2022-11-24T02:36:00,prt,19.31
2022-11-24T02:37:00,prt,20.10
2022-11-24T02:38:00,prt,20.98
2022-11-24T02:39:00,prt,20.39
2022-11-24T02:40:00,prt,19.48
2022-11-24T02:41:00,prt,20.19
2022-11-24T02:42:00,prt,20.65
2022-11-24T02:43:00,prt,21.24
2022-11-24T02:44:00,prt,24.69
2022-11-24T02:45:00,prt,23.02
2022-11-24T02:46:00,prt,24.01
2022-11-24T02:47:00,prt,24.10
2022-11-24T02:48:00,prt,22.39
2022-11-24T02:49:00,prt,20.59
2022-11-24T02:50:00,prt,23.97
2022-11-24T02:51:00,prt,31.23
2022-11-24T02:52:00,prt,29.97
2022-11-24T02:53:00,prt,24.38
2022-11-24T02:54:00,prt,22.92
2022-11-24T02:55:00,prt,22.10
2022-11-24T02:56:00,prt,20.12
2022-11-24T02:57:00,prt,20.00
2022-11-24T02:58:00,prt,19.53
2022-11-24T02:59:00,prt,20.60
2022-11-24T03:00:00,prt,19.74
2022-11-24T03:01:00,prt,19.60
2022-11-24T03:02:00,prt,24.30
2022-11-24T03:03:00,prt,20.75
2022-11-24T03:04:00,prt,21.30
2022-11-24T03:05:00,prt,26.22
2022-11-24T03:06:00,prt,27.01
2022-11-24T03:07:00,prt,26.79
2022-11-24T03:08:00,prt,24.79
2022-11-24T03:09:00,prt,28.37
2022-11-24T03:10:00,prt,25.83
2022-11-24T03:11:00,prt,22.53
2022-11-24T03:12:00,prt,19.23
2022-11-24T03:13:00,prt,19.33
2022-11-24T03:14:00,prt,20.00
2022-11-24T03:15:00,prt,22.87
2022-11-24T03:16:00,prt,23.36
2022-11-24T03:17:00,prt,22.97
2022-11-24T03:18:00,prt,24.29
2022-11-24T03:19:00,prt,23.55
2022-11-24T03:20:00,prt,20.17
2022-11-24T03:21:00,prt,20.12
2022-11-24T03:22:00,prt,20.44
2022-11-24T03:23:00,prt,19.41
2022-11-24T03:24:00,prt,27.12
2022-11-24T03:25:00,prt,27.36
2022-11-24T03:26:00,prt,26.66
2022-11-24T03:27:00,prt,26.00
2022-11-24T03:28:00,prt,26.03
2022-11-24T03:29:00,prt,26.51
2022-11-24T03:30:00,prt,23.18
2022-11-24T03:31:00,prt,25.76
2022-11-24T03:32:00,prt,23.23
2022-11-24T03:33:00,prt,22.92
2022-11-24T03:34:00,prt,22.95
2022-11-24T03:35:00,prt,22.86
2022-11-24T03:36:00,prt,22.12
2022-11-24T03:37:00,prt,21.36
2022-11-24T03:38:00,prt,20.31
2022-11-24T03:39:00,prt,21.82
2022-11-24T03:40:00,prt,24.64
2022-11-24T03:41:00,prt,23.13
2022-11-24T03:42:00,prt,24.07
2022-11-24T03:43:00,prt,26.79
2022-11-24T03:44:00,prt,25.79
2022-11-24T03:45:00,prt,22.79
2022-11-24T03:46:00,prt,28.22
2022-11-24T03:47:00,prt,27.27
2022-11-24T03:48:00,prt,25.23
2022-11-24T03:49:00,prt,25.06
2022-11-24T03:50:00,prt,22.84
2022-11-24T03:51:00,prt,23.09
2022-11-24T03:52:00,prt,20.34
2022-11-24T03:53:00,prt,20.42
2022-11-24T03:54:00,prt,20.27
2022-11-24T03:55:00,prt,20.54
2022-11-24T03:56:00,prt,21.67
2022-11-24T03:57:00,prt,21.46
2022-11-24T03:58:00,prt,20.51
2022-11-24T03:59:00,prt,20.23
2022-11-24T04:00:00,prt,20.49
2022-11-24T04:01:00,prt,20.61
2022-11-24T04:02:00,prt,22.31
2022-11-24T04:03:00,prt,23.37
2022-11-24T04:04:00,prt,24.39
2022-11-24T04:05:00,prt,23.24
2022-11-24T04:06:00,prt,27.70
2022-11-24T04:07:00,prt,32.09
2022-11-24T04:08:00,prt,30.62
2022-11-24T04:09:00,prt,27.24
2022-11-24T04:10:00,prt,25.92
2022-11-24T04:11:00,prt,22.34
2022-11-24T04:12:00,prt,23.16
2022-11-24T04:13:00,prt,23.34
2022-11-24T04:14:00,prt,23.89
2022-11-24T04:15:00,prt,23.27
2022-11-24T04:16:00,prt,23.36
2022-11-24T04:17:00,prt,23.23
2022-11-24T04:18:00,prt,23.73
2022-11-24T04:19:00,prt,23.87
2022-11-24T04:20:00,prt,23.08
2022-11-24T04:21:00,prt,24.46
2022-11-24T04:22:00,prt,27.41
2022-11-24T04:23:00,prt,25.75
2022-11-24T04:24:00,prt,25.98
2022-11-24T04:25:00,prt,22.40
2022-11-24T04:26:00,prt,22.14
2022-11-24T04:27:00,prt,23.74
2022-11-24T04:28:00,prt,23.22
2022-11-24T04:29:00,prt,24.52
2022-11-24T04:30:00,prt,22.90
2022-11-24T04:31:00,prt,22.03
2022-11-24T04:32:00,prt,24.67
2022-11-24T04:33:00,prt,25.64
2022-11-24T04:34:00,prt,27.01
2022-11-24T04:35:00,prt,27.46
2022-11-24T04:36:00,prt,21.01
2022-11-24T04:37:00,prt,21.62
2022-11-24T04:38:00,prt,22.39
2022-11-24T04:39:00,prt,21.60
2022-11-24T04:40:00,prt,21.86
2022-11-24T04:41:00,prt,24.67
2022-11-24T04:42:00,prt,25.22
2022-11-24T04:43:00,prt,23.92
2022-11-24T04:44:00,prt,22.06
2022-11-24T04:45:00,prt,20.83
2022-11-24T04:46:00,prt,19.90
2022-11-24T04:47:00,prt,19.60
2022-11-24T04:48:00,prt,20.86
2022-11-24T04:49:00,prt,21.20
2022-11-24T04:50:00,prt,21.29
2022-11-24T04:51:00,prt,24.27
2022-11-24T04:52:00,prt,23.95
2022-11-24T04:53:00,prt,23.01
2022-11-24T04:54:00,prt,22.90
2022-11-24T04:55:00,prt,22.76
2022-11-24T04:56:00,prt,22.11
2022-11-24T04:57:00,prt,23.77
2022-11-24T04:58:00,prt,24.66
2022-11-24T04:59:00,prt,27.14
2022-11-24T05:00:00,prt,28.36
2022-11-24T05:01:00,prt,25.84
2022-11-24T05:02:00,prt,20.01
2022-11-24T05:03:00,prt,21.08
2022-11-24T05:04:00,prt,22.96
2022-11-24T05:05:00,prt,20.43
2022-11-24T05:06:00,prt,20.31
2022-11-24T05:07:00,prt,19.75
2022-11-24T05:08:00,prt,19.96
2022-11-24T05:09:00,prt,19.63
2022-11-24T05:10:00,prt,20.63
2022-11-24T05:11:00,prt,21.52
2022-11-24T05:12:00,prt,25.32
2022-11-24T05:13:00,prt,25.64
2022-11-24T05:14:00,prt,21.72
2022-11-24T05:15:00,prt,22.56
2022-11-24T05:16:00,prt,21.74
2022-11-24T05:17:00,prt,25.69
2022-11-24T05:18:00,prt,23.96
2022-11-24T05:19:00,prt,24.51
2022-11-24T05:20:00,prt,20.78
2022-11-24T05:21:00,prt,21.15
2022-11-24T05:22:00,prt,21.16
2022-11-24T05:23:00,prt,23.55
2022-11-24T05:24:00,prt,22.70
2022-11-24T05:25:00,prt,24.28
2022-11-24T05:26:00,prt,25.11
2022-11-24T05:27:00,prt,26.05
2022-11-24T05:28:00,prt,21.34
2022-11-24T05:29:00,prt,22.14
2022-11-24T05:30:00,prt,20.05
2022-11-24T05:31:00,prt,22.41
2022-11-24T05:32:00,prt,21.73
2022-11-24T05:33:00,prt,21.25
2022-11-24T05:34:00,prt,20.31
2022-11-24T05:35:00,prt,19.12
2022-11-24T05:36:00,prt,24.56
2022-11-24T05:37:00,prt,24.47
2022-11-24T05:38:00,prt,19.33
2022-11-24T05:39:00,prt,19.01
2022-11-24T05:40:00,prt,17.68
2022-11-24T05:41:00,prt,18.70
2022-11-24T05:42:00,prt,18.77
2022-11-24T05:43:00,prt,19.85
2022-11-24T05:44:00,prt,20.31
2022-11-24T05:45:00,prt,19.55
2022-11-24T05:46:00,prt,22.59
2022-11-24T05:47:00,prt,19.81
2022-11-24T05:48:00,prt,20.38
2022-11-24T05:49:00,prt,23.18
2022-11-24T05:50:00,prt,25.05
2022-11-24T05:51:00,prt,23.97
2022-11-24T05:52:00,prt,23.86
2022-11-24T05:53:00,prt,19.88
2022-11-24T05:54:00,prt,23.06
2022-11-24T05:55:00,prt,24.33
2022-11-24T05:56:00,prt,24.17
2022-11-24T05:57:00,prt,21.05
2022-11-24T05:58:00,prt,20.78
2022-11-24T05:59:00,prt,22.46
2022-11-24T06:00:00,prt,23.39
2022-11-24T06:01:00,prt,22.66
2022-11-24T06:02:00,prt,21.63
2022-11-24T06:03:00,prt,22.65
2022-11-24T06:04:00,prt,24.84
2022-11-24T06:05:00,prt,24.99
2022-11-24T06:06:00,prt,21.39
2022-11-24T06:07:00,prt,19.29
2022-11-24T06:08:00,prt,21.84
2022-11-24T06:09:00,prt,21.73
2022-11-24T06:10:00,prt,21.14
2022-11-24T06:11:00,prt,22.51
2022-11-24T06:12:00,prt,25.19
2022-11-24T06:13:00,prt,25.45
2022-11-24T06:14:00,prt,24.48
2022-11-24T06:15:00,prt,23.66
2022-11-24T06:16:00,prt,24.52
2022-11-24T06:17:00,prt,24.99
2022-11-24T06:18:00,prt,24.04
2022-11-24T06:19:00,prt,23.84
2022-11-24T06:20:00,prt,21.47
2022-11-24T06:21:00,prt,21.90
2022-11-24T06:22:00,prt,23.47
2022-11-24T06:23:00,prt,22.04
2022-11-24T06:24:00,prt,22.13
2022-11-24T06:25:00,prt,21.62
2022-11-24T06:26:00,prt,23.21
2022-11-24T06:27:00,prt,21.90
2022-11-24T06:28:00,prt,22.61
2022-11-24T06:29:00,prt,23.45
2022-11-24T06:30:00,prt,23.96
2022-11-24T06:31:00,prt,26.78
2022-11-24T06:32:00,prt,26.57
2022-11-24T06:33:00,prt,23.81
2022-11-24T06:34:00,prt,23.68
2022-11-24T06:35:00,prt,24.32
2022-11-24T06:36:00,prt,25.62
2022-11-24T06:37:00,prt,26.65
2022-11-24T06:38:00,prt,25.89
2022-11-24T06:39:00,prt,23.40
2022-11-24T06:40:00,prt,24.69
2022-11-24T06:41:00,prt,28.57
2022-11-24T06:42:00,prt,27.30
2022-11-24T06:43:00,prt,25.60
2022-11-24T06:44:00,prt,25.11
2022-11-24T06:45:00,prt,25.13
2022-11-24T06:46:00,prt,22.36
2022-11-24T06:47:00,prt,21.29
2022-11-24T06:48:00,prt,21.06
2022-11-24T06:49:00,prt,24.94
2022-11-24T06:50:00,prt,24.53
2022-11-24T06:51:00,prt,25.31
2022-11-24T06:52:00,prt,23.07
2022-11-24T06:53:00,prt,30.65
2022-11-24T06:54:00,prt,29.58
2022-11-24T06:55:00,prt,22.07
2022-11-24T06:56:00,prt,22.14
2022-11-24T06:57:00,prt,22.92
2022-11-24T06:58:00,prt,22.32
2022-11-24T06:59:00,prt,21.51
2022-11-24T07:00:00,prt,21.67
2022-11-24T07:01:00,prt,21.69
2022-11-24T07:02:00,prt,21.59
2022-11-24T07:03:00,prt,21.61
2022-11-24T07:04:00,prt,26.75
2022-11-24T07:05:00,prt,26.76
2022-11-24T07:06:00,prt,22.65
2022-11-24T07:07:00,prt,28.45
2022-11-24T07:08:00,prt,31.92
2022-11-24T07:09:00,prt,32.88
2022-11-24T07:10:00,prt,26.00
2022-11-24T07:11:00,prt,26.17
2022-11-24T07:12:00,prt,24.68
2022-11-24T07:13:00,prt,22.38
2022-11-24T07:14:00,prt,22.76
2022-11-24T07:15:00,prt,23.75
2022-11-24T07:16:00,prt,20.50
2022-11-24T07:17:00,prt,21.77
2022-11-24T07:18:00,prt,20.71
2022-11-24T07:19:00,prt,19.10
2022-11-24T07:20:00,prt,18.04
2022-11-24T07:21:00,prt,19.41
2022-11-24T07:22:00,prt,18.86
2022-11-24T07:23:00,prt,20.80
2022-11-24T07:24:00,prt,21.15
2022-11-24T07:25:00,prt,22.41
2022-11-24T07:26:00,prt,26.05
2022-11-24T07:27:00,prt,25.89
2022-11-24T07:28:00,prt,24.91
2022-11-24T07:29:00,prt,22.90
2022-11-24T07:30:00,prt,22.80
2022-11-24T07:31:00,prt,19.89
2022-11-24T07:32:00,prt,20.27
2022-11-24T07:33:00,prt,19.43
2022-11-24T07:34:00,prt,22.64
2022-11-24T07:35:00,prt,23.66
2022-11-24T07:36:00,prt,23.64
2022-11-24T07:37:00,prt,22.77
2022-11-24T07:38:00,prt,19.84
2022-11-24T07:39:00,prt,19.38
2022-11-24T07:40:00,prt,22.10
2022-11-24T07:41:00,prt,22.36
2022-11-24T07:42:00,prt,23.60
2022-11-24T07:43:00,prt,23.01
2022-11-24T07:44:00,prt,24.94
2022-11-24T07:45:00,prt,23.84
2022-11-24T07:46:00,prt,24.78
2022-11-24T07:47:00,prt,22.00
2022-11-24T07:48:00,prt,19.11
2022-11-24T07:49:00,prt,19.07
2022-11-24T07:50:00,prt,18.56
2022-11-24T07:51:00,prt,21.52
2022-11-24T07:52:00,prt,19.34
2022-11-24T07:53:00,prt,20.78
2022-11-24T07:54:00,prt,19.95
2022-11-24T07:55:00,prt,19.10
2022-11-24T07:56:00,prt,19.41
2022-11-24T07:57:00,prt,20.53
2022-11-24T07:58:00,prt,20.27
2022-11-24T07:59:00,prt,19.75
2022-11-24T08:00:00,prt,23.92
2022-11-24T08:01:00,prt,23.81
2022-11-24T08:02:00,prt,23.26
2022-11-24T08:03:00,prt,27.27
2022-11-24T08:04:00,prt,27.11
2022-11-24T08:05:00,prt,21.67
2022-11-24T08:06:00,prt,20.89
2022-11-24T08:07:00,prt,20.91
2022-11-24T08:08:00,prt,26.06
2022-11-24T08:09:00,prt,25.55
2022-11-24T08:10:00,prt,22.05
2022-11-24T08:11:00,prt,21.63
2022-11-24T08:12:00,prt,22.19
2022-11-24T08:13:00,prt,23.58
2022-11-24T08:14:00,prt,21.61
2022-11-24T08:15:00,prt,18.55
2022-11-24T08:16:00,prt,18.86
2022-11-24T08:17:00,prt,21.84
2022-11-24T08:18:00,prt,23.63
2022-11-24T08:19:00,prt,22.61
2022-11-24T08:20:00,prt,21.45
2022-11-24T08:21:00,prt,25.68
2022-11-24T08:22:00,prt,25.21
2022-11-24T08:23:00,prt,26.50
2022-11-24T08:24:00,prt,24.68
2022-11-24T08:25:00,prt,24.09
2022-11-24T08:26:00,prt,21.72
2022-11-24T08:27:00,prt,21.25
2022-11-24T08:28:00,prt,22.61
2022-11-24T08:29:00,prt,22.72
2022-11-24T08:30:00,prt,23.84
2022-11-24T08:31:00,prt,23.02
2022-11-24T08:32:00,prt,22.95
2022-11-24T08:33:00,prt,23.98
2022-11-24T08:34:00,prt,25.62
2022-11-24T08:35:00,prt,23.64
2022-11-24T08:36:00,prt,24.16
2022-11-24T08:37:00,prt,23.53
2022-11-24T08:38:00,prt,21.27
2022-11-24T08:39:00,prt,26.08
2022-11-24T08:40:00,prt,23.97
2022-11-24T08:41:00,prt,25.64
2022-11-24T08:42:00,prt,22.64
2022-11-24T08:43:00,prt,22.33
2022-11-24T08:44:00,prt,22.60
2022-11-24T08:45:00,prt,21.69
2022-11-24T08:46:00,prt,23.18
2022-11-24T08:47:00,prt,22.77
2022-11-24T08:48:00,prt,22.93
2022-11-24T08:49:00,prt,24.71
2022-11-24T08:50:00,prt,23.07
2022-11-24T08:51:00,prt,23.02
2022-11-24T08:52:00,prt,26.14
2022-11-24T08:53:00,prt,25.43
2022-11-24T08:54:00,prt,25.34
2022-11-24T08:55:00,prt,23.77
2022-11-24T08:56:00,prt,23.54
2022-11-24T08:57:00,prt,23.01
2022-11-24T08:58:00,prt,27.49
2022-11-24T08:59:00,prt,27.22
2022-11-24T09:00:00,prt,26.07
2022-11-24T09:01:00,prt,23.55
2022-11-24T09:02:00,prt,22.01
2022-11-24T09:03:00,prt,25.49
2022-11-24T09:04:00,prt,21.77
2022-11-24T09:05:00,prt,24.30
2022-11-24T09:06:00,prt,26.03
2022-11-24T09:07:00,prt,25.39
2022-11-24T09:08:00,prt,25.10
2022-11-24T09:09:00,prt,24.45
2022-11-24T09:10:00,prt,25.28
2022-11-24T09:11:00,prt,21.70
2022-11-24T09:12:00,prt,21.93
2022-11-24T09:13:00,prt,21.13
2022-11-24T09:14:00,prt,19.54
2022-11-24T09:15:00,prt,19.29
2022-11-24T09:16:00,prt,23.63
2022-11-24T09:17:00,prt,24.83
2022-11-24T09:18:00,prt,24.49
2022-11-24T09:19:00,prt,19.92
2022-11-24T09:20:00,prt,23.59
2022-11-24T09:21:00,prt,25.14
2022-11-24T09:22:00,prt,20.73
2022-11-24T09:23:00,prt,22.19
2022-11-24T09:24:00,prt,22.46
2022-11-24T09:25:00,prt,20.98
2022-11-24T09:26:00,prt,26.07
2022-11-24T09:27:00,prt,26.13
2022-11-24T09:28:00,prt,26.15
2022-11-24T09:29:00,prt,24.31
2022-11-24T09:30:00,prt,24.44
2022-11-24T09:31:00,prt,24.84
2022-11-24T09:32:00,prt,19.51
2022-11-24T09:33:00,prt,19.00
2022-11-24T09:34:00,prt,21.69
2022-11-24T09:35:00,prt,23.01
2022-11-24T09:36:00,prt,23.82
2022-11-24T09:37:00,prt,22.59
2022-11-24T09:38:00,prt,24.05
2022-11-24T09:39:00,prt,22.35
2022-11-24T09:40:00,prt,21.11
2022-11-24T09:41:00,prt,22.45
2022-11-24T09:42:00,prt,21.06
2022-11-24T09:43:00,prt,21.68
2022-11-24T09:44:00,prt,19.59
2022-11-24T09:45:00,prt,24.33
2022-11-24T09:46:00,prt,23.86
2022-11-24T09:47:00,prt,23.70
2022-11-24T09:48:00,prt,25.25
2022-11-24T09:49:00,prt,24.24
2022-11-24T09:50:00,prt,19.50
2022-11-24T09:51:00,prt,19.82
2022-11-24T09:52:00,prt,19.99
2022-11-24T09:53:00,prt,24.42
2022-11-24T09:54:00,prt,24.86
2022-11-24T09:55:00,prt,23.96
2022-11-24T09:56:00,prt,20.83
2022-11-24T09:57:00,prt,21.79
2022-11-24T09:58:00,prt,20.49
2022-11-24T09:59:00,prt,19.22
2022-11-24T10:00:00,prt,18.75
2022-11-24T10:01:00,prt,20.05
2022-11-24T10:02:00,prt,18.52
2022-11-24T10:03:00,prt,21.22
2022-11-24T10:04:00,prt,21.91
2022-11-24T10:05:00,prt,23.03
2022-11-24T10:06:00,prt,21.61
2022-11-24T10:07:00,prt,20.61
2022-11-24T10:08:00,prt,22.39
2022-11-24T10:09:00,prt,23.19
2022-11-24T10:10:00,prt,23.24
2022-11-24T10:11:00,prt,26.39
2022-11-24T10:12:00,prt,28.12
2022-11-24T10:13:00,prt,24.09
2022-11-24T10:14:00,prt,20.00
2022-11-24T10:15:00,prt,19.58
2022-11-24T10:16:00,prt,24.61
2022-11-24T10:17:00,prt,19.88
2022-11-24T10:18:00,prt,20.60
2022-11-24T10:19:00,prt,19.88
2022-11-24T10:20:00,prt,20.30
2022-11-24T10:21:00,prt,21.68
2022-11-24T10:22:00,prt,21.05
2022-11-24T10:23:00,prt,21.37
2022-11-24T10:24:00,prt,22.43
2022-11-24T10:25:00,prt,23.10
2022-11-24T10:26:00,prt,23.84
2022-11-24T10:27:00,prt,21.39
2022-11-24T10:28:00,prt,20.97
2022-11-24T10:29:00,prt,24.20
2022-11-24T10:30:00,prt,25.09
2022-11-24T10:31:00,prt,24.23
2022-11-24T10:32:00,prt,20.29
2022-11-24T10:33:00,prt,24.00
2022-11-24T10:34:00,prt,24.62
2022-11-24T10:35:00,prt,25.35
2022-11-24T10:36:00,prt,25.93
2022-11-24T10:37:00,prt,25.87
2022-11-24T10:38:00,prt,24.16
2022-11-24T10:39:00,prt,23.37
2022-11-24T10:40:00,prt,22.79
2022-11-24T10:41:00,prt,20.27
2022-11-24T10:42:00,prt,21.18
2022-11-24T10:43:00,prt,20.99
2022-11-24T10:44:00,prt,21.80
2022-11-24T10:45:00,prt,22.64
2022-11-24T10:46:00,prt,21.44
2022-11-24T10:47:00,prt,20.85
2022-11-24T10:48:00,prt,23.66
2022-11-24T10:49:00,prt,23.57
2022-11-24T10:50:00,prt,25.94
2022-11-24T10:51:00,prt,23.28
2022-11-24T10:52:00,prt,22.13
2022-11-24T10:53:00,prt,21.73
2022-11-24T10:54:00,prt,23.78
2022-11-24T10:55:00,prt,22.91
2022-11-24T10:56:00,prt,20.90
2022-11-24T10:57:00,prt,23.14
2022-11-24T10:58:00,prt,26.61
2022-11-24T10:59:00,prt,22.43
2022-11-24T11:00:00,prt,22.68
2022-11-24T11:01:00,prt,23.34
2022-11-24T11:02:00,prt,19.91
2022-11-24T11:03:00,prt,25.16
2022-11-24T11:04:00,prt,25.33
2022-11-24T11:05:00,prt,23.90
2022-11-24T11:06:00,prt,25.67
2022-11-24T11:07:00,prt,26.39
2022-11-24T11:08:00,prt,24.26
2022-11-24T11:09:00,prt,20.55
2022-11-24T11:10:00,prt,23.16
2022-11-24T11:11:00,prt,22.51
2022-11-24T11:12:00,prt,21.78
2022-11-24T11:13:00,prt,21.80
2022-11-24T11:14:00,prt,24.80
2022-11-24T11:15:00,prt,22.84
2022-11-24T11:16:00,prt,22.78
2022-11-24T11:17:00,prt,21.64
2022-11-24T11:18:00,prt,21.14
2022-11-24T11:19:00,prt,21.19
2022-11-24T11:20:00,prt,19.39
2022-11-24T11:21:00,prt,18.83
2022-11-24T11:22:00,prt,21.08
2022-11-24T11:23:00,prt,22.11
2022-11-24T11:24:00,prt,23.23
2022-11-24T11:25:00,prt,28.22
2022-11-24T11:26:00,prt,27.92
2022-11-24T11:27:00,prt,25.09
2022-11-24T11:28:00,prt,20.66
2022-11-24T11:29:00,prt,21.48
2022-11-24T11:30:00,prt,21.24
2022-11-24T11:31:00,prt,22.90
2022-11-24T11:32:00,prt,21.04
2022-11-24T11:33:00,prt,20.31
2022-11-24T11:34:00,prt,19.01
2022-11-24T11:35:00,prt,20.71
2022-11-24T11:36:00,prt,20.51
2022-11-24T11:37:00,prt,20.64
2022-11-24T11:38:00,prt,20.61
2022-11-24T11:39:00,prt,21.40
2022-11-24T11:40:00,prt,22.02
2022-11-24T11:41:00,prt,21.96
2022-11-24T11:42:00,prt,22.35
2022-11-24T11:43:00,prt,25.38
2022-11-24T11:44:00,prt,27.02
2022-11-24T11:45:00,prt,25.05
2022-11-24T11:46:00,prt,21.15
2022-11-24T11:47:00,prt,24.11
2022-11-24T11:48:00,prt,22.27
2022-11-24T11:49:00,prt,26.10
2022-11-24T11:50:00,prt,24.97
2022-11-24T11:51:00,prt,24.43
2022-11-24T11:52:00,prt,24.04
2022-11-24T11:53:00,prt,24.89
2022-11-24T11:54:00,prt,21.51
2022-11-24T11:55:00,prt,21.50
2022-11-24T11:56:00,prt,22.33
2022-11-24T11:57:00,prt,22.82
2022-11-24T11:58:00,prt,23.18
2022-11-24T11:59:00,prt,23.83
2022-11-24T12:00:00,prt,23.10
2022-11-24T12:01:00,prt,26.86
2022-11-24T12:02:00,prt,24.88
2022-11-24T12:03:00,prt,25.66
2022-11-24T12:04:00,prt,22.79
2022-11-24T12:05:00,prt,22.88
2022-11-24T12:06:00,prt,20.08
2022-11-24T12:07:00,prt,20.21
2022-11-24T12:08:00,prt,20.63
2022-11-24T12:09:00,prt,21.34
2022-11-24T12:10:00,prt,20.69
2022-11-24T12:11:00,prt,21.67
2022-11-24T12:12:00,prt,21.40
2022-11-24T12:13:00,prt,20.80
2022-11-24T12:14:00,prt,20.92
2022-11-24T12:15:00,prt,24.34
2022-11-24T12:16:00,prt,24.29
2022-11-24T12:17:00,prt,23.16
2022-11-24T12:18:00,prt,23.77
2022-11-24T12:19:00,prt,24.75
2022-11-24T12:20:00,prt,27.40
2022-11-24T12:21:00,prt,28.02
2022-11-24T12:22:00,prt,25.18
2022-11-24T12:23:00,prt,21.98
2022-11-24T12:24:00,prt,23.03
2022-11-24T12:25:00,prt,21.34
2022-11-24T12:26:00,prt,23.22
2022-11-24T12:27:00,prt,23.31
2022-11-24T12:28:00,prt,21.36
2022-11-24T12:29:00,prt,20.24
2022-11-24T12:30:00,prt,19.85
2022-11-24T12:31:00,prt,21.02
2022-11-24T12:32:00,prt,21.55
2022-11-24T12:33:00,prt,22.45
2022-11-24T12:34:00,prt,21.80
2022-11-24T12:35:00,prt,22.22
2022-11-24T12:36:00,prt,21.86
2022-11-24T12:37:00,prt,21.56
2022-11-24T12:38:00,prt,25.49
2022-11-24T12:39:00,prt,25.29
2022-11-24T12:40:00,prt,24.53
2022-11-24T12:41:00,prt,25.18
2022-11-24T12:42:00,prt,24.76
2022-11-24T12:43:00,prt,24.42
2022-11-24T12:44:00,prt,24.98
2022-11-24T12:45:00,prt,24.56
2022-11-24T12:46:00,prt,21.46
2022-11-24T12:47:00,prt,21.92
2022-11-24T12:48:00,prt,20.68
2022-11-24T12:49:00,prt,19.28
2022-11-24T12:50:00,prt,19.98
2022-11-24T12:51:00,prt,19.83
2022-11-24T12:52:00,prt,21.03
2022-11-24T12:53:00,prt,22.01
2022-11-24T12:54:00,prt,22.16
2022-11-24T12:55:00,prt,21.60
2022-11-24T12:56:00,prt,24.91
2022-11-24T12:57:00,prt,24.71
2022-11-24T12:58:00,prt,23.02
2022-11-24T12:59:00,prt,17.03
2022-11-24T13:00:00,prt,20.30
2022-11-24T13:01:00,prt,18.80
2022-11-24T13:02:00,prt,20.78
2022-11-24T13:03:00,prt,22.59
2022-11-24T13:04:00,prt,23.26
2022-11-24T13:05:00,prt,23.35
2022-11-24T13:06:00,prt,23.43
2022-11-24T13:07:00,prt,26.30
2022-11-24T13:08:00,prt,25.07
2022-11-24T13:09:00,prt,23.04
2022-11-24T13:10:00,prt,22.41
2022-11-24T13:11:00,prt,21.02
2022-11-24T13:12:00,prt,17.76
2022-11-24T13:13:00,prt,19.68
2022-11-24T13:14:00,prt,19.74
2022-11-24T13:15:00,prt,23.41
2022-11-24T13:16:00,prt,21.94
2022-11-24T13:17:00,prt,20.84
2022-11-24T13:18:00,prt,20.82